Tracking 28794 objects as of 19-Apr-2024
HD Live streaming from Space Station
objects crossing your sky now

COSMOS 540

Track COSMOS 540 now!
10-day predictions
COSMOS 540 is classified as:


NORAD ID: 6323
Int'l Code: 1972-104A
Perigee: 762.0 km
Apogee: 789.6 km
Inclination: 74.1 °
Period: 100.2 minutes
Semi major axis: 7146 km
RCS: 2.1717 m2 (large)
Launch date: December 25, 1972
Source: Commonwealth of Independent States (former USSR) (CIS)
Launch site: PLESETSK MISSILE AND SPACE COMPLEX (PKMTR)
Your satellite tracking list
Your tracking list is empty




NASA's NSSDC Master Catalog

Two Line Element Set (TLE):
1 06323U 72104A   24110.41577580  .00000622  00000-0  21849-3 0  9990
2 06323  74.0783 106.7233 0019310 274.3291  85.5656 14.36917052685696
Source of the keplerian elements: AFSPC